Notices

What's New in latest Release from April 7th, 2021:

- Updated Glossary, including Speed of Maximum Gust, and Total Hourly Precipitation

- Updated national and regional climate services offices contacts and prices information

- Addition of station inventory lists for 1981-2010, 1971-2000, and 1961-1990 Normals.

If you haven't already, please take our survey and provide feedback about our website: https://eccc.sondage-survey.ca/f/LanguageSelection.aspx?s=442ca660-fcf1-47c0-95a9-59707d6fd709

Hourly Data Report for December 26, 2018

CARBERRY CS
MANITOBA
Current Station Operator: ECCC - MSC

49°54'20.900" N
99°21'26.800" W
383.50 m
5010547
71170
WZE

Download Data

Hourly Data (December 2018)
Hourly Data Report for December 26, 2018
TIME
LST
Temp Definition
°C
Dew Point Definition
°C
Rel Hum Definition
%
Precip. Amount Definition
mm

Wind Dir Definition
10's deg

Wind Spd Definition
km/h
Visibility Definition
km
Stn Press Definition
kPa
Hmdx Definition


Wind Chill Definition


Weather Definition


00:00 -13.4 -15.5 84 0.0 14 6   98.36   -17 LegendNANA
01:00 -13.0 -15.1 84 0.0 15 2   98.36   -14 LegendNANA
02:00 -12.7 -15.1 83 0.0 16 7   98.38   -17 LegendNANA
03:00 -12.9 -15.1 84 0.0 16 4   98.36   -16 LegendNANA
04:00 -12.5 -15.3 79 0.0 18 6   98.36   -16 LegendNANA
05:00 -12.4 -15.7 76 0.0 17 8   98.32   -17 LegendNANA
06:00 -12.5 -15.6 77 0.0 18 7   98.31   -17 LegendNANA
07:00 -12.6 -15.4 80 0.0 17 8   98.27   -18 LegendNANA
08:00 -12.7 -15.5 80 0.0 16 6   98.24   -17 LegendNANA
09:00 -12.9 -15.4 82 0.0 15 9   98.27   -18 LegendNANA
10:00 -13.0 -15.4 82 0.0 16 13   98.26   -20 LegendNANA
11:00 -13.1 -15.6 81 0.0 15 12   98.18   -20 LegendNANA
12:00 -13.3 -16.0 80 0.0 13 9   98.05   -19 LegendNANA
13:00 -13.2 -15.9 80 0.0 14 9   97.99   -19 LegendNANA
14:00 -13.4 -16.1 80 0.0 15 10   97.95   -19 LegendNANA
15:00 -13.3 -16.1 80 0.0 15 11   97.96   -20 LegendNANA
16:00 -13.4 -15.9 81 0.0 12 11   97.94   -20 LegendNANA
17:00 -13.5 -15.7 83 0.0 9 9   97.89   -19 LegendNANA
18:00 -13.6 -15.9 83 0.2 10 9   97.82   -19 LegendNANA
19:00 -13.6 -15.8 83 0.2 8 9   97.74   -19 LegendNANA
20:00 -13.6 -15.8 83 0.2 8 9   97.71   -19 LegendNANA
21:00 -13.9 -16.1 83 0.5 8 9   97.68   -20 LegendNANA
22:00 -13.9 -16.0 83 0.2 7 10   97.62   -20 LegendNANA
23:00 -13.9 -16.0 84 0.5 8 6   97.62   -18 LegendNANA

Notes on Data Quality.

Legend

  • E = Estimated
  • M = Missing
  • NA = Not Available*
  • [empty] = Indicates an unobserved value
Date modified: